Las Americas, Dominican Republic

3:26 AM AST on September 21, 2017 (GMT -0400)
Las Americas International

Weather History for MDSD - November, 2013

Change the Weather History Date:

Friday, November 8, 2013

  Actual Average Record
Temperature  
Mean Temperature 81 °F -  
Max Temperature 89 °F 86 °F 93 °F (2001)
Min Temperature 73 °F 69 °F 37 °F (2001)
Cooling Degree Days 16    
Growing Degree Days 31 (Base 50)    
Moisture  
Dew Point 73 °F    
Average Humidity 83    
Maximum Humidity 94    
Minimum Humidity 70    
Precipitation  
Precipitation 0.00 in 0.12 in - ()
Sea Level Pressure  
Sea Level Pressure 29.90 in    
Wind  
Wind Speed 5 mph ()    
Max Wind Speed 10 mph    
Max Gust Speed -    
Visibility 6.5 miles    
Events      
Averages and records for this station are not official NWS values.
T = Trace of Precipitation, MM = Missing Value Source: Averaged Metar Reports

Daily Weather History Graph

Daily Weather History Graph

Search for Another Location

Airport or City:

Trip Planner

Search our weather history database for the weather conditions in past years. The results will help you decide how hot, cold, wet, or windy it might be!

Date:

Astronomy

Nov. 08, 2013 Rise Set
Actual Time 6:41 AM AST 6:03 PM AST
Civil Twilight 6:18 AM AST 6:25 PM AST
Nautical Twilight 5:52 AM AST 6:51 PM AST
Astronomical Twilight 5:26 AM AST 7:17 PM AST
Moon 11:34 AM AST (11/8) 11:17 PM AST (11/8)
Length of Visible Light 12h 06m
Length of Day
11h 21m
Waxing Crescent, 32% of the Moon is Illuminated
Nov 8
Waxing Crescent
Nov 10
First Quarter
Nov 17
Full
Nov 25
Last Quarter
Dec 2
New

Hourly Weather History & Observations

Time (AST) Temp. Heat Index Dew Point Humidity Pressure Visibility Wind Dir Wind Speed Gust Speed Precip Events Conditions
12:00 AM 75.2 °F - 71.6 °F 89% 29.92 in 6.2 mi NE 4.6 mph - N/A   Scattered Clouds
1:00 AM 73.4 °F - 71.6 °F 94% 29.92 in 6.2 mi NE 4.6 mph - N/A   Scattered Clouds
2:00 AM 73 °F - 71 °F 90% 29.90 in 10 mi NE 6.7 mph - -   Scattered Clouds
2:00 AM 73.4 °F - 71.6 °F 94% 29.89 in 6.2 mi NE 5.8 mph - N/A   Partly Cloudy
3:00 AM 73.4 °F - 71.6 °F 94% 29.86 in 6.2 mi NE 5.8 mph - N/A   Partly Cloudy
4:00 AM 73.4 °F - 69.8 °F 88% 29.89 in 6.2 mi NE 4.6 mph - N/A   Partly Cloudy
5:00 AM 73 °F - 70 °F 89% 29.89 in 10 mi North 4.5 mph - -   Scattered Clouds
5:00 AM 73.4 °F - 69.8 °F 88% 29.89 in 6.2 mi NE 4.6 mph - N/A   Partly Cloudy
6:00 AM 73.4 °F - 69.8 °F 88% 29.89 in 6.2 mi Calm Calm - N/A   Partly Cloudy
7:00 AM 73.4 °F - 69.8 °F 88% 29.89 in 6.2 mi NNE 4.6 mph - N/A   Partly Cloudy
8:00 AM 73.4 °F - 69.8 °F 88% 29.92 in 6.2 mi NNE 4.6 mph - N/A   Partly Cloudy
9:00 AM 77.0 °F - 71.6 °F 83% 29.92 in 6.2 mi NE 5.8 mph - N/A   Partly Cloudy
10:00 AM 80.6 °F 85.4 °F 73.4 °F 79% 29.95 in 6.2 mi East 4.6 mph - N/A   Partly Cloudy
11:00 AM 84.2 °F 94.1 °F 77.0 °F 79% 29.95 in 6.2 mi SE 4.6 mph - N/A   Scattered Clouds
12:00 PM 86.0 °F 96.9 °F 77.0 °F 74% 29.92 in 6.2 mi South 5.8 mph - N/A   Scattered Clouds
1:00 PM 87.8 °F 99.7 °F 77.0 °F 70% 29.89 in 6.2 mi SSE 9.2 mph - N/A   Scattered Clouds
2:00 PM 89.6 °F 104.7 °F 78.8 °F 70% 29.89 in 6.2 mi SSE 6.9 mph - N/A   Scattered Clouds
3:00 PM 87.8 °F 99.7 °F 77.0 °F 70% 29.86 in 6.2 mi South 5.8 mph - N/A   Scattered Clouds
4:00 PM 86.0 °F 96.9 °F 77.0 °F 74% 29.86 in 6.2 mi South 5.8 mph - N/A   Scattered Clouds
5:00 PM 86.0 °F 96.9 °F 77.0 °F 74% 29.86 in 6.2 mi South 5.8 mph - N/A   Scattered Clouds
6:00 PM 86.0 °F 96.9 °F 77.0 °F 74% 29.86 in 6.2 mi South 5.8 mph - N/A   Partly Cloudy
7:00 PM 80.6 °F 86.2 °F 75.2 °F 84% 29.86 in 6.2 mi Calm Calm - N/A   Partly Cloudy
8:00 PM 80.6 °F 85.4 °F 73.4 °F 79% 29.89 in - North - - N/A   Scattered Clouds
9:00 PM 78.8 °F - 73.4 °F 83% 29.92 in 6.2 mi Variable 3.5 mph - N/A   Partly Cloudy
10:00 PM 77.0 °F - 71.6 °F 83% 29.92 in 6.2 mi ENE 10.4 mph - N/A   Partly Cloudy
11:00 PM 77.0 °F - 71.6 °F 83% 29.92 in 6.2 mi ENE 5.8 mph - N/A   Partly Cloudy